WAT4464 VTBS-VDPP

Flight info

Callsign WAT4464
Flight time 0h 52m
Altitude 33000
Route GOMES1J GOMES N506 BOKAK SOBEN3A
Aircraft A320/M-SDE3FGHIRWY/LB1

Departure

Time 2026-04-24 13:43
Airport Suvarnabhumi Airport (VTBS)

Arrival

Time 2026-04-24 14:36
Airport Phnom Penh International Airport (VDPP)
Time Latitude Longitude Altitude Speed Heading
2026-04-24 13:30 13.69061 100.75604 8 ft 0 kts 194°
2026-04-24 13:38 13.69062 100.75604 -20 ft 1 kts 194°
2026-04-24 13:39 13.69085 100.75610 11 ft 4 kts 192°
2026-04-24 13:39 13.69111 100.75615 9 ft 4 kts 189°
2026-04-24 13:39 13.69138 100.75618 11 ft 4 kts 179°
2026-04-24 13:39 13.69163 100.75614 11 ft 4 kts 140°
2026-04-24 13:40 13.69170 100.75605 10 ft 0 kts 101°
2026-04-24 13:41 13.69156 100.75665 8 ft 21 kts 105°
2026-04-24 13:42 13.69115 100.75817 8 ft 23 kts 105°
2026-04-24 13:42 13.69074 100.75974 9 ft 21 kts 103°
2026-04-24 13:42 13.68986 100.76052 9 ft 24 kts 187°
2026-04-24 13:42 13.68601 100.75953 11 ft 90 kts 194°
2026-04-24 13:43 13.67803 100.75743 7 ft 144 kts 194°
2026-04-24 13:43 13.66732 100.75452 309 ft 164 kts 195°
2026-04-24 13:43 13.65613 100.75169 970 ft 168 kts 186°
2026-04-24 13:43 13.64443 100.75132 1689 ft 168 kts 178°
2026-04-24 13:44 13.63224 100.75157 2084 ft 184 kts 177°
2026-04-24 13:44 13.61899 100.75179 2469 ft 197 kts 178°
2026-04-24 13:44 13.60469 100.75192 2835 ft 216 kts 178°
2026-04-24 13:44 13.58932 100.75369 3220 ft 234 kts 155°
2026-04-24 13:45 13.57686 100.76479 3700 ft 248 kts 120°
2026-04-24 13:45 13.57280 100.78204 4390 ft 254 kts 86°
2026-04-24 13:45 13.57415 100.80030 5172 ft 258 kts 88°
2026-04-24 13:45 13.57439 100.81893 5975 ft 262 kts 90°
2026-04-24 13:46 13.57443 100.83777 6755 ft 264 kts 91°
2026-04-24 13:46 13.57408 100.85676 7546 ft 266 kts 93°
2026-04-24 13:46 13.57351 100.87591 8293 ft 270 kts 91°
2026-04-24 13:46 13.57324 100.89542 8979 ft 277 kts 91°
2026-04-24 13:47 13.57284 100.91515 9644 ft 284 kts 91°
2026-04-24 13:47 13.57229 100.93571 10187 ft 294 kts 91°
2026-04-24 13:47 13.57195 100.95754 10400 ft 317 kts 90°
2026-04-24 13:47 13.57179 100.98091 10705 ft 334 kts 90°
2026-04-24 13:48 13.57168 101.00508 11299 ft 340 kts 90°
2026-04-24 13:48 13.57123 101.02952 11952 ft 344 kts 94°
2026-04-24 13:48 13.56764 101.05399 12591 ft 348 kts 99°
2026-04-24 13:48 13.56343 101.07862 13248 ft 352 kts 99°
2026-04-24 13:49 13.55918 101.10350 13852 ft 355 kts 99°
2026-04-24 13:49 13.55488 101.12862 14404 ft 359 kts 99°
2026-04-24 13:49 13.55050 101.15397 14956 ft 362 kts 99°
2026-04-24 13:49 13.54607 101.17953 15500 ft 365 kts 99°
2026-04-24 13:50 13.54160 101.20532 16041 ft 368 kts 100°
2026-04-24 13:50 13.53711 101.23133 16581 ft 371 kts 100°
2026-04-24 13:50 13.53259 101.25756 17120 ft 374 kts 100°
2026-04-24 13:50 13.52801 101.28405 17640 ft 378 kts 100°
2026-04-24 13:51 13.52337 101.31072 18151 ft 381 kts 100°
2026-04-24 13:51 13.51866 101.33762 18583 ft 384 kts 101°
2026-04-24 13:51 13.51128 101.36407 19010 ft 387 kts 112°
2026-04-24 13:51 13.49957 101.38901 19443 ft 390 kts 117°
2026-04-24 13:52 13.49131 101.40546 19737 ft 392 kts 117°
2026-04-24 13:52 13.47457 101.43894 20328 ft 395 kts 117°
2026-04-24 13:52 13.46198 101.46420 20759 ft 398 kts 117°
2026-04-24 13:52 13.44931 101.48965 21186 ft 401 kts 117°
2026-04-24 13:53 13.43659 101.51521 21601 ft 403 kts 117°
2026-04-24 13:53 13.42390 101.54059 22008 ft 406 kts 117°
2026-04-24 13:53 13.41093 101.56649 22413 ft 408 kts 117°
2026-04-24 13:53 13.39790 101.59251 22825 ft 411 kts 117°
2026-04-24 13:54 13.38496 101.61879 23225 ft 414 kts 116°
2026-04-24 13:54 13.37213 101.64533 23588 ft 416 kts 116°
2026-04-24 13:54 13.35935 101.67211 23917 ft 419 kts 116°
2026-04-24 13:54 13.34652 101.69903 24244 ft 421 kts 116°
2026-04-24 13:55 13.33352 101.72620 24575 ft 423 kts 116°
2026-04-24 13:55 13.32046 101.75339 24892 ft 426 kts 116°
2026-04-24 13:55 13.31177 101.77143 25105 ft 427 kts 116°
2026-04-24 13:55 13.29851 101.79888 25427 ft 429 kts 116°
2026-04-24 13:56 13.28518 101.82641 25728 ft 432 kts 116°
2026-04-24 13:56 13.27175 101.85408 26050 ft 434 kts 116°
2026-04-24 13:56 13.25386 101.89092 26495 ft 437 kts 116°
2026-04-24 13:56 13.24030 101.91891 26800 ft 439 kts 116°
2026-04-24 13:57 13.22671 101.94705 27105 ft 441 kts 116°
2026-04-24 13:57 13.21748 101.96614 27305 ft 442 kts 116°
2026-04-24 13:57 13.20376 101.99449 27615 ft 444 kts 116°
2026-04-24 13:57 13.18999 102.02295 27916 ft 446 kts 116°
2026-04-24 13:58 13.17615 102.05153 28223 ft 448 kts 116°
2026-04-24 13:58 13.16226 102.08022 28531 ft 450 kts 116°
2026-04-24 13:58 13.14847 102.10868 28810 ft 452 kts 116°
2026-04-24 13:58 13.13444 102.13763 29089 ft 454 kts 116°
2026-04-24 13:59 13.12034 102.16672 29392 ft 456 kts 116°
2026-04-24 13:59 13.10617 102.19591 29685 ft 458 kts 116°
2026-04-24 13:59 13.09190 102.22524 29939 ft 461 kts 116°
2026-04-24 13:59 13.07756 102.25470 30174 ft 463 kts 116°
2026-04-24 14:00 13.06318 102.28426 30424 ft 464 kts 116°
2026-04-24 14:00 13.04877 102.31395 30628 ft 466 kts 116°
2026-04-24 14:00 13.03431 102.34377 30834 ft 468 kts 116°
2026-04-24 14:00 13.01982 102.37369 31073 ft 469 kts 116°
2026-04-24 14:01 13.00525 102.40367 31290 ft 471 kts 116°
2026-04-24 14:01 12.99063 102.43365 31622 ft 469 kts 116°
2026-04-24 14:01 12.97607 102.46348 31995 ft 467 kts 116°
2026-04-24 14:01 12.96155 102.49319 32332 ft 466 kts 117°
2026-04-24 14:02 12.94620 102.52245 32668 ft 465 kts 119°
2026-04-24 14:02 12.92981 102.55099 32859 ft 465 kts 121°
2026-04-24 14:02 12.91289 102.57878 32905 ft 453 kts 122°
2026-04-24 14:02 12.89601 102.60584 32900 ft 447 kts 122°
2026-04-24 14:03 12.86281 102.65947 32900 ft 444 kts 122°
2026-04-24 14:03 12.83064 102.71297 32899 ft 443 kts 121°
2026-04-24 14:04 12.79870 102.76687 32901 ft 441 kts 121°
2026-04-24 14:04 12.76686 102.82038 32894 ft 439 kts 121°
2026-04-24 14:05 12.73493 102.87381 32900 ft 439 kts 121°
2026-04-24 14:05 12.70318 102.92686 32644 ft 431 kts 121°
2026-04-24 14:06 12.68764 102.95285 32389 ft 426 kts 121°
2026-04-24 14:06 12.67221 102.97862 32142 ft 423 kts 121°
2026-04-24 14:06 12.65702 103.00394 31905 ft 422 kts 121°
2026-04-24 14:06 12.64170 103.02954 31666 ft 421 kts 121°
2026-04-24 14:07 12.62643 103.05508 31422 ft 420 kts 121°
2026-04-24 14:07 12.61117 103.08055 31176 ft 419 kts 121°
2026-04-24 14:07 12.59591 103.10600 30951 ft 418 kts 121°
2026-04-24 14:07 12.58073 103.13134 30729 ft 417 kts 121°
2026-04-24 14:08 12.56559 103.15663 30501 ft 416 kts 121°
2026-04-24 14:08 12.55048 103.18184 30243 ft 412 kts 121°
2026-04-24 14:08 12.53553 103.20676 29758 ft 410 kts 121°
2026-04-24 14:08 12.52061 103.23162 29274 ft 406 kts 121°
2026-04-24 14:09 12.50608 103.25583 28826 ft 402 kts 121°
2026-04-24 14:09 12.49148 103.28015 28383 ft 399 kts 121°
2026-04-24 14:09 12.47703 103.30422 27950 ft 395 kts 121°
2026-04-24 14:09 12.46271 103.32806 27512 ft 392 kts 121°
2026-04-24 14:10 12.44849 103.35170 27064 ft 389 kts 121°
2026-04-24 14:10 12.43437 103.37516 26645 ft 386 kts 121°
2026-04-24 14:10 12.42034 103.39848 26201 ft 384 kts 121°
2026-04-24 14:10 12.40639 103.42169 25757 ft 382 kts 121°
2026-04-24 14:11 12.39247 103.44479 25293 ft 381 kts 122°
2026-04-24 14:11 12.37858 103.46783 24834 ft 380 kts 122°
2026-04-24 14:11 12.35090 103.51388 23862 ft 380 kts 122°
2026-04-24 14:12 12.33701 103.53695 23368 ft 380 kts 122°
2026-04-24 14:12 12.32313 103.55997 22827 ft 380 kts 122°
2026-04-24 14:12 12.30929 103.58294 22361 ft 378 kts 122°
2026-04-24 14:12 12.29554 103.60575 21888 ft 376 kts 122°
2026-04-24 14:13 12.28184 103.62847 21420 ft 375 kts 122°
2026-04-24 14:13 12.26821 103.65112 20968 ft 374 kts 122°
2026-04-24 14:13 12.25477 103.67342 20514 ft 372 kts 122°
2026-04-24 14:13 12.24117 103.69592 20054 ft 372 kts 122°
2026-04-24 14:14 12.22760 103.71839 19610 ft 371 kts 122°
2026-04-24 14:14 12.21406 103.74082 19145 ft 370 kts 121°
2026-04-24 14:14 12.18709 103.78556 18234 ft 370 kts 121°
2026-04-24 14:15 12.17433 103.80820 17825 ft 366 kts 114°
2026-04-24 14:15 12.16463 103.83211 17343 ft 359 kts 111°
2026-04-24 14:15 12.15543 103.85532 16889 ft 346 kts 111°
2026-04-24 14:15 12.14654 103.87768 16493 ft 333 kts 111°
2026-04-24 14:16 12.13780 103.89959 16106 ft 333 kts 111°
2026-04-24 14:16 12.12902 103.92155 15715 ft 333 kts 111°
2026-04-24 14:16 12.12033 103.94323 15341 ft 333 kts 111°
2026-04-24 14:17 12.10281 103.98697 14572 ft 332 kts 111°
2026-04-24 14:17 12.09410 104.00869 14182 ft 327 kts 111°
2026-04-24 14:17 12.07732 104.05054 13421 ft 310 kts 111°
2026-04-24 14:18 12.06918 104.07093 13042 ft 310 kts 111°
2026-04-24 14:18 12.06103 104.09131 12661 ft 310 kts 111°
2026-04-24 14:18 12.05288 104.11168 12281 ft 309 kts 111°
2026-04-24 14:18 12.04476 104.13201 11907 ft 309 kts 111°
2026-04-24 14:19 12.03939 104.14545 11652 ft 309 kts 111°
2026-04-24 14:19 12.02851 104.17265 11152 ft 307 kts 111°
2026-04-24 14:19 12.02073 104.19200 10939 ft 291 kts 111°
2026-04-24 14:19 12.01314 104.21088 10478 ft 285 kts 111°
2026-04-24 14:20 12.00564 104.22953 10028 ft 283 kts 111°
2026-04-24 14:20 11.99819 104.24806 9630 ft 281 kts 111°
2026-04-24 14:20 11.99078 104.26652 9287 ft 280 kts 112°
2026-04-24 14:20 11.98338 104.28489 8947 ft 279 kts 111°
2026-04-24 14:21 11.97602 104.30323 8565 ft 279 kts 112°
2026-04-24 14:21 11.96865 104.32158 8160 ft 280 kts 112°
2026-04-24 14:21 11.96126 104.33994 7866 ft 275 kts 112°
2026-04-24 14:21 11.95403 104.35786 7636 ft 272 kts 112°
2026-04-24 14:22 11.94683 104.37573 7404 ft 271 kts 112°
2026-04-24 14:22 11.93968 104.39347 7181 ft 269 kts 112°
2026-04-24 14:22 11.92548 104.42873 6735 ft 268 kts 112°
2026-04-24 14:23 11.91841 104.44629 6516 ft 267 kts 112°
2026-04-24 14:23 11.91138 104.46379 6297 ft 266 kts 112°
2026-04-24 14:23 11.90438 104.48120 6067 ft 264 kts 112°
2026-04-24 14:23 11.89738 104.49854 5826 ft 264 kts 112°
2026-04-24 14:24 11.89050 104.51562 5612 ft 263 kts 112°
2026-04-24 14:24 11.88358 104.53282 5373 ft 261 kts 112°
2026-04-24 14:24 11.87667 104.54998 5137 ft 260 kts 112°
2026-04-24 14:24 11.86980 104.56702 4920 ft 259 kts 112°
2026-04-24 14:25 11.86295 104.58400 4696 ft 258 kts 112°
2026-04-24 14:25 11.85616 104.60090 4462 ft 257 kts 112°
2026-04-24 14:25 11.84938 104.61776 4241 ft 256 kts 112°
2026-04-24 14:25 11.84264 104.63454 4019 ft 255 kts 113°
2026-04-24 14:26 11.83597 104.65108 3803 ft 254 kts 113°
2026-04-24 14:26 11.82924 104.66773 3586 ft 253 kts 113°
2026-04-24 14:26 11.82252 104.68432 3362 ft 252 kts 113°
2026-04-24 14:26 11.81583 104.70085 3142 ft 252 kts 113°
2026-04-24 14:27 11.80919 104.71734 3007 ft 250 kts 113°
2026-04-24 14:27 11.80258 104.73374 2989 ft 250 kts 113°
2026-04-24 14:27 11.79595 104.75017 2990 ft 250 kts 113°
2026-04-24 14:27 11.78932 104.76662 2991 ft 251 kts 113°
2026-04-24 14:28 11.78270 104.78302 2988 ft 247 kts 112°
2026-04-24 14:28 11.77640 104.79864 2987 ft 230 kts 113°
2026-04-24 14:28 11.77045 104.81337 2993 ft 221 kts 113°
2026-04-24 14:28 11.76461 104.82784 2990 ft 220 kts 113°
2026-04-24 14:29 11.75877 104.84222 2991 ft 220 kts 113°
2026-04-24 14:29 11.75294 104.85656 2989 ft 214 kts 113°
2026-04-24 14:29 11.74740 104.87017 2988 ft 201 kts 113°
2026-04-24 14:29 11.74222 104.88298 3008 ft 191 kts 113°
2026-04-24 14:30 11.73889 104.89121 2993 ft 189 kts 113°
2026-04-24 14:30 11.73202 104.90764 2990 ft 187 kts 119°
2026-04-24 14:30 11.72479 104.91838 2997 ft 186 kts 132°
2026-04-24 14:30 11.71554 104.92763 2994 ft 186 kts 136°
2026-04-24 14:31 11.70620 104.93680 3000 ft 186 kts 136°
2026-04-24 14:31 11.69689 104.94597 2993 ft 185 kts 136°
2026-04-24 14:31 11.68660 104.95382 2899 ft 185 kts 153°
2026-04-24 14:31 11.67430 104.95753 2814 ft 185 kts 173°
2026-04-24 14:32 11.66146 104.95662 2689 ft 187 kts 193°
2026-04-24 14:32 11.64970 104.95098 2519 ft 189 kts 214°
2026-04-24 14:32 11.64011 104.94166 2303 ft 191 kts 223°
2026-04-24 14:32 11.63093 104.93206 2055 ft 186 kts 223°
2026-04-24 14:33 11.62224 104.92299 1839 ft 176 kts 222°
2026-04-24 14:33 11.61402 104.91441 1624 ft 162 kts 222°
2026-04-24 14:33 11.60634 104.90641 1417 ft 154 kts 222°
2026-04-24 14:33 11.59894 104.89871 1218 ft 150 kts 222°
2026-04-24 14:34 11.59160 104.89107 1041 ft 150 kts 223°
2026-04-24 14:34 11.58438 104.88355 870 ft 149 kts 223°
2026-04-24 14:34 11.57718 104.87605 682 ft 147 kts 224°
2026-04-24 14:34 11.56998 104.86856 502 ft 147 kts 224°
2026-04-24 14:35 11.56284 104.86111 312 ft 147 kts 224°
2026-04-24 14:35 11.55572 104.85359 106 ft 146 kts 224°
2026-04-24 14:35 11.54883 104.84646 44 ft 129 kts 224°
2026-04-24 14:35 11.54352 104.84097 42 ft 64 kts 226°
2026-04-24 14:36 11.54147 104.83873 43 ft 26 kts 233°
2026-04-24 14:36 11.54190 104.83750 42 ft 21 kts 328°
2026-04-24 14:36 11.54293 104.83791 41 ft 18 kts 45°
2026-04-24 14:36 11.54396 104.83892 41 ft 23 kts 42°
2026-04-24 14:37 11.54519 104.84020 41 ft 24 kts 49°
2026-04-24 14:37 11.54640 104.84153 40 ft 24 kts 41°
2026-04-24 14:37 11.54773 104.84289 40 ft 28 kts 46°
2026-04-24 14:37 11.54909 104.84426 40 ft 30 kts 45°
2026-04-24 14:38 11.55034 104.84558 40 ft 18 kts 44°
2026-04-24 14:38 11.55129 104.84564 40 ft 14 kts 323°
2026-04-24 14:38 11.55164 104.84520 37 ft 1 kts 297°
2026-04-24 14:38 11.55171 104.84509 40 ft 2 kts 307°
2026-04-24 14:39 11.55172 104.84507 40 ft 0 kts 307°